Flag for Canada Weather past 2 weeks in Hamilton, Ontario, Canada

Now
59 °F

Clear.


Feels Like: 58 °F
Forecast: 63 / 83 °F
Wind: 7 mph from West

Location: Hamilton Airport

Current Time: Jul 31, 2015 at 5:54:04 AM

Latest Report: Jul 31, 2015 at 5:00 AM


Visibility: 15 mi

Pressure: 29.90 "Hg

Humidity: 94%

Dew point: 57 °F

Location of HamiltonLocation

Historic Weather in Hamilton — Graph

°F

Hamilton temperature yesterday

Maximum temperature yesterday: 82 °F (at 3:00 PM)
Minimum temperature yesterday: 64 °F (at 6:00 AM)
Average temperature yesterday: 74 °F

Past Weeks' High & Low Weather Summary

 TemperatureHumidityPressure
High88 °F (Jul 18, 4:00 PM)100% (Jul 17, 11:00 PM)30.14 "Hg (Jul 17, 11:00 PM)
Low52 °F (Jul 16, 4:00 AM)34% (Jul 24, 3:00 PM)29.64 "Hg (Jul 21, 3:00 AM)
Average72 °F71%29.91 "Hg
* Reported Jul 16 4:00 AM — Jul 31 4:00 AM, Hamilton, Weather by CustomWeather, © 2015

Note: Actual official high and low records may vary slightly from our data, if they occured in-between our weather recording intervals... More about our weather records

Advertising

Hamilton weather history for previous 24 hours

 ConditionsComfort  
Time TempWeatherWind HumidityBarometerVisibility
4:00 AM
Fri, Jul 31
61 °FClear.6 mph88%29.90 "Hg15 mi
3:00 AM63 °FClear.6 mph83%29.90 "Hg15 mi
2:00 AM64 °FClear.6 mph78%29.90 "Hg15 mi
1:00 AM64 °FPassing clouds.7 mph78%29.90 "Hg15 mi
12:00 AM66 °FClear.6 mph73%29.89 "Hg15 mi
11:00 PM
Thu, Jul 30
68 °FPassing clouds.6 mph69%29.88 "Hg15 mi
10:00 PM68 °FPassing clouds.6 mph69%29.88 "Hg15 mi
9:00 PM72 °FPassing clouds.6 mph57%29.87 "Hg15 mi
8:00 PM77 °FPassing clouds.12 mph47%29.87 "Hg15 mi
7:00 PM79 °FPassing clouds.16 mph45%29.86 "Hg15 mi
6:00 PM81 °FPassing clouds.12 mph42%29.86 "Hg15 mi
5:00 PM82 °FPassing clouds.20 mph35%29.85 "Hg15 mi
4:00 PM82 °FPassing clouds.17 mph42%29.85 "Hg15 mi
3:00 PM82 °FScattered clouds.18 mph42%29.85 "Hg15 mi
2:00 PM81 °FBroken clouds.20 mph42%29.86 "Hg15 mi
1:00 PM81 °FPartly sunny.18 mph45%29.87 "Hg15 mi
12:00 PM81 °FBroken clouds.16 mph48%29.88 "Hg15 mi
11:00 AM79 °FPassing clouds.12 mph51%29.88 "Hg15 mi
10:00 AM75 °FPassing clouds.8 mph69%29.88 "Hg15 mi
9:00 AM72 °FPassing clouds.8 mph73%29.88 "Hg15 mi
8:00 AM68 °FPassing clouds.10 mph78%29.88 "Hg15 mi
7:00 AM64 °FPassing clouds.7 mph88%29.87 "Hg15 mi
6:00 AM64 °FPassing clouds.8 mph88%29.85 "Hg15 mi
5:00 AM68 °FPassing clouds.7 mph73%29.84 "Hg15 mi
Weather by CustomWeather, © 2015

See weather overviewHow to use our weather pages